Observations for Trim Patrick St
| Time | AQI | Temp °C | Hum % | Pres Pa | CO μg/m³ | H₂S μg/m³ | NO μg/m³ | NO₂ μg/m³ | O₃ μg/m³ | SO₂ μg/m³ | PM1 μg/m³ | PM2.5 μg/m³ | PM10 μg/m³ |
|---|---|---|---|---|---|---|---|---|---|---|---|---|---|
| Wednesday 26 August 2026 | |||||||||||||
| 17:18 | 2 | 33 | 40 | 69,252 | 0 | 0 | 2.36 | 25.41 | 118.47 | 15.29 | 5.43 | 12.53 | 13.78 |
| 17:17 | 2 | 33 | 41 | 69,282 | 0 | 0 | 2.37 | 14.4 | 82.57 | 16.57 | 5.43 | 11.68 | 12.84 |
| 17:16 | 2 | 32.9 | 39 | 69,286 | 0 | 0 | 2.36 | 17.91 | 97.8 | 15.48 | 8 | 14.94 | 16.43 |
| 17:15 | 2 | 32.8 | 41 | 69,288 | 0 | 0 | 2.54 | 15.93 | 88.06 | 16.48 | 6.29 | 12.49 | 13.74 |
| 17:14 | 2 | 32.7 | 40 | 69,294 | 0 | 0 | 2.36 | 15.41 | 80.86 | 15.11 | 7.14 | 13.33 | 14.66 |
| 17:13 | 2 | 32.7 | 43 | 69,278 | 0 | 0 | 2.5 | 17.15 | 84.67 | 14.48 | 7.14 | 13.06 | 14.37 |
| 17:12 | 2 | 32.6 | 44 | 69,310 | 0 | 0 | 2.62 | 16.33 | 74.12 | 14.44 | 6.29 | 12.19 | 13.4 |
| 17:11 | 2 | 32.5 | 43 | 69,326 | 0 | 0 | 2.43 | 16.45 | 76.06 | 14.57 | 6.29 | 12.27 | 13.5 |
| 17:09 | 2 | 32.2 | 42 | 69,296 | 0 | 0 | 2.33 | 26.91 | 97.4 | 13.74 | 4.57 | 10.84 | 11.93 |
| 17:08 | 2 | 32 | 42 | 69,269 | 0 | 0 | 2.22 | 24.39 | 106.76 | 14.52 | 5.43 | 12.37 | 13.61 |
| 17:06 | 2 | 31.8 | 42 | 69,246 | 0 | 0 | 2.17 | 23.78 | 76.41 | 12.48 | 5.43 | 11.58 | 12.74 |
| 17:04 | 2 | 31.5 | 43 | 69,234 | 0 | 2.95 | 2.04 | 35.99 | 176.06 | 12.88 | 6.29 | 13.88 | 15.27 |
| 16:59 | 2 | 30.9 | 46 | 69,197 | 0 | 0 | 2.28 | 14.96 | 96.93 | 12.66 | 7.14 | 13.64 | 15.01 |
| 16:58 | 2 | 30.8 | 44 | 69,212 | 0 | 0 | 2.14 | 16.28 | 140.27 | 12.55 | 7.14 | 13.03 | 14.34 |
| 16:57 | 2 | 30.8 | 43 | 69,232 | 0 | 0 | 2.08 | 14.58 | 116.66 | 12.6 | 6.29 | 13.88 | 15.27 |
| 16:56 | 2 | 30.7 | 46 | 69,258 | 0 | 0 | 2.33 | 16.07 | 119.43 | 13.17 | 5.43 | 11.3 | 12.43 |
| 16:55 | 2 | 30.7 | 43 | 69,262 | 0 | 0 | 2.04 | 12.92 | 103.88 | 13.31 | 8 | 15.41 | 16.96 |
| 16:54 | 2 | 30.7 | 45 | 69,267 | 0 | 0 | 2.27 | 14.7 | 111.52 | 13.63 | 6.29 | 12.15 | 13.37 |
| 16:53 | 2 | 30.8 | 44 | 69,240 | 0 | 0 | 2.18 | 20.69 | 138.03 | 12.17 | 7.14 | 13 | 14.3 |
| 16:52 | 2 | 30.9 | 45 | 69,238 | 0 | 0 | 2.23 | 18.07 | 89.96 | 11.66 | 8 | 12.94 | 14.24 |